Regional Weather Roundup
Issued by NWS

Home | Current Version | Previous Version | Text Only | Print | Product List | Glossary On
Versions: 1 2 3 4 5 6 7 8 9 10 11 12 13 14 15 16 17 18 19 20 21 22 23 24 25 26 27 28 29 30 31 32 33 34 35 36 37 38 39 40 41 42 43 44 45 46 47 48 49 50
000
ASUS44 KMEG 251210
RWRTN
TENNESSEE HOURLY STATE WEATHER ROUNDUP
NATIONAL WEATHER SERVICE MEMPHIS TN
700 AM CDT MON JUL 25 2016

TNZ002-004-019-021-049-052-054-088>092-251300-
WEST TENNESSEE

CITY           SKY/WX    TMP DP  RH WIND       PRES   REMARKS
MEMPHIS INTL   PTCLDY    79  75  87 S8        30.01R
NWS MEMPHIS      N/A     77 N/A N/A MISG        N/A
JACKSON        SUNNY     76  75  97 CALM      30.02S
DYERSBURG      SUNNY     75  73  94 MISG      30.01
UNION CITY     SUNNY     77  75  94 CALM      29.99F
PARIS          SUNNY     75  72  88 SE6       30.03R
LEXINGTON      SUNNY     75  73  94 CALM      30.03R
$$

TNZ008-025-027-028-033-062-065-066-251300-
NORTH MIDDLE TENNESSEE

CITY           SKY/WX    TMP DP  RH WIND       PRES   REMARKS
NASHVILLE      MOSUNNY   78  73  84 CALM      30.05R
CLARKSVILLE    SUNNY     77  74  90 CALM      30.04R
SMYRNA         SUNNY     76  74  93 S6        30.06R
COOKEVILLE     SUNNY     75  73  94 CALM      30.08R
CROSSVILLE     SUNNY     72  71  97 CALM      30.14R
$$

TNZ061-075-076-078-094-096-097-251300-
SOUTH MIDDLE TENNESSEE

CITY           SKY/WX    TMP DP  RH WIND       PRES   REMARKS
FAYETTEVILLE   SUNNY     75  73  94 S3        30.09R
TULLAHOMA      SUNNY     75  72  88 CALM      30.10R
WINCHESTER     SUNNY     73  72  94 S3        30.09S
MCMINNVILLE    SUNNY     75  75 100 CALM      30.09R
COLUMBIA       SUNNY    N/A N/A N/A S3        30.04S
SHELBYVILLE    SUNNY     75  75 100 E3        30.08R
$$

TNZ017-018-042-046-047-251300-
NORTHEAST TENNESSEE

CITY           SKY/WX    TMP DP  RH WIND       PRES   REMARKS
TRI CITIES     MOSUNNY   74  70  87 CALM      30.12R
ELIZABETHTON   MOSUNNY   73  68  83 CALM      30.12R
$$

TNZ012-013-036-069-073-074-251300-
CENTRAL EAST TENNESSEE

CITY           SKY/WX    TMP DP  RH WIND       PRES   REMARKS
KNOXVILLE      MOSUNNY   78  72  81 SW3       30.08R
OAK RIDGE      MOSUNNY   78  72  81 CALM      30.10R
GATLINBURG     SUNNY     73  68  83 CALM      30.09R
MORRISTOWN     SUNNY     77  73  88 CALM      30.10R
$$

TNZ083-085-099-251300-
SOUTHEAST TENNESSEE

CITY           SKY/WX    TMP DP  RH WIND       PRES   REMARKS
CHATTANOOGA    MOSUNNY   76  73  91 CALM      30.09R
$$

SKY/WX REPORTED AS FAIR MEANS FEW OR NO CLOUDS BELOW
12 THOUSAND FEET.





USA.gov is the U.S. government's official web portal to all federal, state and local government web resources and services.